Altus, OK

11:19 PM CDT on August 24, 2016 (GMT -0500)
Altus Air Force Base

Weather History for KLTS - September, 2012

Change the Weather History Date:

Thursday, September 6, 2012

  Actual Average Record
Temperature  
Mean Temperature 84 °F -  
Max Temperature 96 °F 89 °F 102 °F (1998)
Min Temperature 72 °F 65 °F 52 °F (2011)
Cooling Degree Days 18    
Growing Degree Days 34 (Base 50)    
Moisture  
Dew Point 71 °F    
Average Humidity 80    
Maximum Humidity 100    
Minimum Humidity 38    
Precipitation  
Precipitation 0.03 in - - ()
Sea Level Pressure  
Sea Level Pressure 29.91 in    
Wind  
Wind Speed 8 mph (ESE)    
Max Wind Speed 15 mph    
Max Gust Speed -    
Visibility 10 miles    
Events Rain    
Averages and records for this station are not official NWS values.
T = Trace of Precipitation, MM = Missing Value Source: NWS Daily Summary

Daily Weather History Graph

Daily Weather History Graph

Search for Another Location

Airport or City:

Trip Planner

Search our weather history database for the weather conditions in past years. The results will help you decide how hot, cold, wet, or windy it might be!

Date:

Astronomy

Sep. 06, 2012 Rise Set
Actual Time 7:14 AM CDT 7:55 PM CDT
Civil Twilight 6:48 AM CDT 8:21 PM CDT
Nautical Twilight 6:18 AM CDT 8:51 PM CDT
Astronomical Twilight 5:47 AM CDT 9:22 PM CDT
Moon 11:24 PM CDT (9/6) 12:57 PM CDT (9/6)
Length of Visible Light 13h 32m
Length of Day
12h 41m
Waning Gibbous, 67% of the Moon is Illuminated
Sep 6
Waning Gibbous
Sep 8
Last Quarter
Sep 15
New
Sep 22
First Quarter
Sep 29
Full

Hourly Weather History & Observations

Time (CDT) Temp. Heat Index Dew Point Humidity Pressure Visibility Wind Dir Wind Speed Gust Speed Precip Events Conditions
12:10 AM 73.4 °F - 69.8 °F 88% 29.94 in 10.0 mi NE 15.0 mph - N/A Rain Light Rain
12:20 AM 73.4 °F - 71.6 °F 94% 29.95 in 10.0 mi ENE 12.7 mph - N/A   Scattered Clouds
12:24 AM 73.4 °F - 71.6 °F 94% 29.95 in 10.0 mi ENE 11.5 mph - N/A   Light Drizzle
12:34 AM 73.4 °F - 71.6 °F 94% 29.96 in 10.0 mi ESE 8.1 mph - N/A   Scattered Clouds
12:55 AM 73.4 °F - 70.7 °F 91% 29.99 in 10.0 mi WSW 9.2 mph - 0.01 in   Scattered Clouds
1:12 AM 73.4 °F - 71.6 °F 94% 29.98 in 10.0 mi Calm Calm - N/A   Light Drizzle
1:43 AM 73.4 °F - 71.6 °F 94% 29.96 in 10.0 mi SE 4.6 mph - N/A Rain Light Rain
1:55 AM 73.0 °F - 73.0 °F 100% 29.95 in 10.0 mi SE 4.6 mph - 0.01 in Rain Light Rain
2:01 AM 73.4 °F - 73.4 °F 100% 29.95 in 10.0 mi Calm Calm - N/A Rain Light Rain
2:15 AM 73.4 °F - 73.4 °F 100% 29.93 in 10.0 mi ESE 8.1 mph - N/A   Partly Cloudy
2:21 AM 73.4 °F - 73.4 °F 100% 29.92 in 10.0 mi ESE 9.2 mph - N/A   Partly Cloudy
2:55 AM 72.1 °F - 72.1 °F 100% 29.92 in 10.0 mi East 12.7 mph - 0.00 in   Clear
3:55 AM 72.5 °F - 72.3 °F 99% 29.86 in 10.0 mi NE 9.2 mph - 0.01 in   Clear
4:55 AM 72.7 °F - 71.8 °F 97% 29.86 in 10.0 mi Variable 4.6 mph - N/A   Clear
5:55 AM 73.0 °F - 71.2 °F 94% 29.86 in 10.0 mi NNW 6.9 mph - N/A   Partly Cloudy
6:55 AM 72.0 °F - 72.0 °F 100% 29.88 in 10.0 mi NW 8.1 mph - N/A   Clear
7:55 AM 72.3 °F - 71.6 °F 98% 29.89 in 10.0 mi NNW 6.9 mph - N/A   Mostly Cloudy
8:55 AM 75.2 °F - 71.1 °F 87% 29.91 in 10.0 mi West 4.6 mph - N/A   Clear
9:55 AM 77.2 °F - 72.0 °F 84% 29.94 in 10.0 mi NW 4.6 mph - N/A   Partly Cloudy
10:55 AM 81.7 °F 86.0 °F 71.6 °F 71% 29.96 in 10.0 mi Calm Calm - N/A   Clear
11:55 AM 85.5 °F 89.1 °F 68.9 °F 57% 29.95 in 10.0 mi Variable 3.5 mph - N/A   Clear
12:55 PM 88.5 °F 93.1 °F 69.3 °F 53% 29.93 in 10.0 mi SSE 9.2 mph - N/A   Clear
1:55 PM 91.4 °F 95.4 °F 68.0 °F 46% 29.91 in 10.0 mi SE 8.1 mph - N/A   Clear
4:55 PM 95.7 °F 99.8 °F 67.5 °F 39% 29.89 in 10.0 mi SSE 10.4 mph - N/A   Clear
5:55 PM 95.2 °F 98.3 °F 66.0 °F 38% 29.87 in 10.0 mi SSE 10.4 mph - N/A   Clear
6:55 PM 94.1 °F 96.9 °F 65.3 °F 39% 29.85 in 10.0 mi SE 9.2 mph - N/A   Clear
7:55 PM 89.8 °F 93.3 °F 67.6 °F 48% 29.85 in 10.0 mi SSE 6.9 mph - N/A   Clear
8:55 PM 83.8 °F 87.5 °F 68.9 °F 61% 29.85 in 10.0 mi ESE 4.6 mph - N/A   Clear
9:55 PM 80.8 °F 84.2 °F 70.0 °F 70% 29.86 in 10.0 mi ESE 5.8 mph - N/A   Clear
10:55 PM 81.7 °F 85.1 °F 69.4 °F 66% 29.88 in 10.0 mi Calm Calm - N/A   Mostly Cloudy
11:55 PM 78.4 °F - 72.5 °F 82% 29.88 in 10.0 mi Calm Calm - N/A   Clear